This is the latest recevied weather packets stored in our database for station/object KJ4EWA. If no packets are shown the sender has not sent any weather packets the latest 10 day(s).
| Time | Temp. | Humidity | Pressure | Rain* | Wind** | Luminosity | Snow |
|---|---|---|---|---|---|---|---|
| 1778109328 | 24.44° C | 98% | 1015.6 hPa | 0 mm | - | 21 W/m² | - |
| 1778109026 | 24.44° C | 98% | 1015.7 hPa | 0 mm | - | 18 W/m² | - |
| 1778108722 | 24.44° C | 98% | 1015.9 hPa | 0 mm | - | 16 W/m² | - |
| 1778108420 | 24.44° C | 98% | 1015.9 hPa | 0 mm | - | 23 W/m² | - |
| 1778108117 | 24.44° C | 99% | 1015.9 hPa | 0 mm | - | 27 W/m² | - |
| 1778107813 | 24.44° C | 99% | 1016.1 hPa | 0 mm | - | 31 W/m² | - |
| 1778107510 | 24.44° C | 99% | 1016.1 hPa | 0 mm | - | 43 W/m² | - |
| 1778107206 | 24.44° C | 98% | 1016.3 hPa | 0 mm | - | 45 W/m² | - |
| 1778106902 | 24.44° C | 98% | 1016.3 hPa | 0 mm | - | 29 W/m² | - |
| 1778106594 | 24.44° C | 97% | 1016.4 hPa | 0 mm | - | 16 W/m² | - |
| 1778106290 | 24.44° C | 97% | 1016.2 hPa | 0 mm | - | 31 W/m² | - |
| 1778105987 | 24.44° C | 97% | 1016.4 hPa | 0 mm | - | 38 W/m² | - |
| 1778105684 | 25° C | 97% | 1016.7 hPa | 0 mm | - | 33 W/m² | - |
| 1778105382 | 24.44° C | 97% | 1016.4 hPa | 0 mm | - | 24 W/m² | - |
| 1778105077 | 25° C | 97% | 1016.4 hPa | 0 mm | - | 42 W/m² | - |
| 1778104773 | 25° C | 96% | 1016.4 hPa | 0 mm | - | 53 W/m² | - |
| 1778104470 | 25° C | 96% | 1016.4 hPa | 0 mm | - | 38 W/m² | - |
| 1778104166 | 25° C | 96% | 1016.7 hPa | 0 mm | - | 42 W/m² | - |
| 1778103863 | 25° C | 96% | 1016.4 hPa | 0 mm | - | 34 W/m² | - |
| 1778103561 | 25° C | 95% | 1016.6 hPa | 0 mm | - | 39 W/m² | - |
| 1778103258 | 25° C | 95% | 1016.6 hPa | 0 mm | - | 61 W/m² | - |
| 1778102955 | 25.56° C | 95% | 1016.6 hPa | 0 mm | - | 55 W/m² | - |
| 1778102651 | 25.56° C | 94% | 1016.7 hPa | 0 mm | - | 88 W/m² | - |
| 1778102346 | 25.56° C | 94% | 1016.5 hPa | 0 mm | - | 130 W/m² | - |
| 1778102042 | 25.56° C | 94% | 1016.7 hPa | 0 mm | - | 125 W/m² | - |
* Rain latest hour (hover to see other rain measurements)
** Current wind speed in m/s (hover to see current wind gust speed)